| time (UTC) | temp C | wind direction | speed KPH | gust KPH | rain 1hr cm | rain 24hr cm | rain mn cm | humidity % | barometer mb |
| 20260507154105 | 13 | 225 | 9.7 | 27.4 | 0.00 | 0.00 | 0.00 | 34 | 1011.9 |
| 20260507153554 | 14 | 225 | 11.3 | 27.4 | 0.00 | 0.00 | 0.00 | 35 | 1012.3 |
| 20260507153049 | 13 | 248 | 6.4 | 25.7 | 0.00 | 0.00 | 0.00 | 36 | 1012.3 |
| 20260507152025 | 13 | 203 | 16.1 | 29.0 | 0.00 | 0.00 | 0.00 | 37 | 1012.2 |
| 20260507151514 | 13 | 203 | 8.0 | 29.0 | 0.00 | 0.00 | 0.00 | 37 | 1012.4 |
| 20260507151004 | 13 | 225 | 11.3 | 33.8 | 0.00 | 0.00 | 0.00 | 36 | 1012.4 |
| 20260507150454 | 12 | 225 | 19.3 | 33.8 | 0.00 | 0.00 | 0.00 | 37 | 1012.1 |
| 20260507145944 | 12 | 225 | 8.0 | 32.2 | 0.00 | 0.00 | 0.00 | 38 | 1012.2 |
| 20260507145433 | 13 | 225 | 6.4 | 33.8 | 0.00 | 0.00 | 0.00 | 37 | 1012.2 |
| 20260507144924 | 13 | 225 | 12.9 | 33.8 | 0.00 | 0.00 | 0.00 | 38 | 1012.4 |
| 20260507144413 | 12 | 203 | 11.3 | 33.8 | 0.00 | 0.00 | 0.00 | 38 | 1012.4 |
| 20260507143903 | 12 | 248 | 6.4 | 32.2 | 0.00 | 0.00 | 0.00 | 39 | 1012.4 |
| 20260507142844 | 12 | 225 | 12.9 | 27.4 | 0.00 | 0.00 | 0.00 | 38 | 1012.3 |
| 20260507141313 | 12 | 225 | 14.5 | 38.6 | 0.00 | 0.00 | 0.00 | 38 | 1011.8 |
| 20260507140805 | 12 | 293 | 12.9 | 35.4 | 0.00 | 0.00 | 0.00 | 39 | 1011.7 |
| 20260507140252 | 12 | 248 | 11.3 | 35.4 | 0.00 | 0.00 | 0.00 | 41 | 1011.7 |
| 20260507135744 | 12 | 225 | 20.9 | 37.0 | 0.00 | 0.00 | 0.00 | 41 | 1011.8 |
| 20260507135232 | 12 | 225 | 9.7 | 37.0 | 0.00 | 0.00 | 0.00 | 41 | 1012.4 |
| 20260507134723 | 12 | 225 | 11.3 | 27.4 | 0.00 | 0.00 | 0.00 | 43 | 1012.3 |
| 20260507134217 | 11 | 225 | 17.7 | 24.1 | 0.00 | 0.00 | 0.00 | 45 | 1012.3 |
| 20260507133702 | 11 | 225 | 6.4 | 17.7 | 0.00 | 0.00 | 0.00 | 45 | 1012.1 |
| 20260507133152 | 11 | 225 | 8.0 | 22.5 | 0.00 | 0.00 | 0.00 | 46 | 1012.1 |
| 20260507132642 | 11 | 248 | 9.7 | 22.5 | 0.00 | 0.00 | 0.00 | 47 | 1012.2 |
| 20260507131622 | 11 | 248 | 6.4 | 22.5 | 0.00 | 0.00 | 0.00 | 48 | 1012.2 |
| 20260507131112 | 10 | 225 | 6.4 | 17.7 | 0.00 | 0.00 | 0.00 | 49 | 1012.0 |
| 20260507130602 | 10 | 225 | 8.0 | 17.7 | 0.00 | 0.00 | 0.00 | 49 | 1012.4 |
| 20260507130051 | 10 | 203 | 11.3 | 17.7 | 0.00 | 0.00 | 0.00 | 49 | 1012.6 |
| 20260507125541 | 10 | 248 | 1.6 | 12.9 | 0.00 | 0.00 | 0.00 | 51 | 1012.4 |
| 20260507125032 | 9 | 225 | 1.6 | 17.7 | 0.00 | 0.00 | 0.00 | 50 | 1012.5 |
| 20260507124011 | 10 | 203 | 6.4 | 14.5 | 0.00 | 0.00 | 0.00 | 51 | 1012.6 |
| 20260507123501 | 10 | 225 | 1.6 | 11.3 | 0.00 | 0.00 | 0.00 | 51 | 1012.4 |
| 20260507122440 | 10 | 270 | 3.2 | 14.5 | 0.00 | 0.00 | 0.00 | 51 | 1012.3 |
| 20260507121931 | 10 | 248 | 3.2 | 12.9 | 0.00 | 0.00 | 0.00 | 50 | 1012.2 |
| 20260507120400 | 9 | 203 | 3.2 | 17.7 | 0.00 | 0.00 | 0.00 | 52 | 1011.8 |
| 20260507115850 | 10 | 270 | 6.4 | 25.7 | 0.00 | 0.00 | 0.00 | 50 | 1011.7 |
| 20260507115340 | 10 | 225 | 9.7 | 25.7 | 0.00 | 0.00 | 0.00 | 50 | 1011.3 |
| 20260507114320 | 10 | 248 | 6.4 | 17.7 | 0.00 | 0.00 | 0.00 | 50 | 1011.1 |
| 20260507113810 | 10 | 225 | 6.4 | 17.7 | 0.00 | 0.00 | 0.00 | 50 | 1010.9 |
| 20260507112749 | 10 | 248 | 1.6 | 17.7 | 0.00 | 0.00 | 0.00 | 51 | 1010.7 |
| 20260507112239 | 10 | 203 | 8.0 | 17.7 | 0.00 | 0.00 | 0.00 | 49 | 1010.7 |
| 20260507110709 | 10 | 225 | 11.3 | 17.7 | 0.00 | 0.00 | 0.00 | 51 | 1010.8 |
| 20260507110159 | 10 | 203 | 6.4 | 22.5 | 0.00 | 0.00 | 0.00 | 50 | 1011.0 |
| 20260507105649 | 10 | 225 | 6.4 | 22.5 | 0.00 | 0.00 | 0.00 | 50 | 1010.4 |
| 20260507105139 | 10 | 203 | 3.2 | 14.5 | 0.00 | 0.00 | 0.00 | 50 | 1010.3 |
| 20260507104628 | 10 | 248 | 1.6 | 12.9 | 0.00 | 0.00 | 0.00 | 50 | 1010.4 |
| 20260507104118 | 11 | 270 | 3.2 | 17.7 | 0.00 | 0.00 | 0.00 | 49 | 1010.4 |
| 20260507103608 | 11 | 203 | 0.0 | 17.7 | 0.00 | 0.00 | 0.00 | 50 | 1010.9 |
| 20260507103058 | 11 | 225 | 4.8 | 17.7 | 0.00 | 0.00 | 0.00 | 49 | 1010.8 |
| 20260507102555 | 11 | 203 | 3.2 | 17.7 | 0.00 | 0.00 | 0.00 | 50 | 1011.0 |
| 20260507101017 | 11 | 203 | 0.0 | 12.9 | 0.00 | 0.00 | 0.00 | 52 | 1011.2 |
| 20260507100508 | 11 | 225 | 1.6 | 9.7 | 0.00 | 0.00 | 0.00 | 51 | 1011.5 |
| 20260507095448 | 11 | 180 | 0.0 | 6.4 | 0.00 | 0.00 | 0.00 | 53 | 1010.9 |
| 20260507094937 | 12 | 225 | 0.0 | 9.7 | 0.00 | 0.00 | 0.00 | 52 | 1010.9 |
| 20260507094425 | 12 | 180 | 0.0 | 9.7 | 0.00 | 0.00 | 0.00 | 52 | 1011.5 |
| 20260507093917 | 12 | 270 | 3.2 | 12.9 | 0.00 | 0.00 | 0.00 | 51 | 1011.2 |
| 20260507093406 | 12 | 225 | 0.0 | 12.9 | 0.00 | 0.00 | 0.00 | 51 | 1010.9 |
| 20260507092857 | 12 | 225 | 6.4 | 11.3 | 0.00 | 0.00 | 0.00 | 51 | 1011.2 |
| 20260507092346 | 12 | 225 | 0.0 | 9.7 | 0.00 | 0.00 | 0.00 | 51 | 1011.0 |
| 20260507091836 | 12 | 270 | 1.6 | 9.7 | 0.00 | 0.00 | 0.00 | 53 | 1010.8 |
| 20260507090817 | 12 | 270 | 0.0 | 9.7 | 0.00 | 0.00 | 0.00 | 53 | 1010.2 |
| 20260507090306 | 12 | 225 | 0.0 | 9.7 | 0.00 | 0.00 | 0.00 | 52 | 1009.7 |
| 20260507085756 | 12 | 225 | 0.0 | 9.7 | 0.00 | 0.00 | 0.00 | 51 | 1009.8 |
| 20260507085247 | 12 | 225 | 0.0 | 14.5 | 0.00 | 0.00 | 0.00 | 51 | 1010.3 |
| 20260507084736 | 12 | 225 | 0.0 | 14.5 | 0.00 | 0.00 | 0.00 | 50 | 1010.4 |
| 20260507084226 | 12 | 203 | 0.0 | 11.3 | 0.00 | 0.00 | 0.00 | 52 | 1009.9 |
| 20260507083715 | 12 | 180 | 0.0 | 11.3 | 0.00 | 0.00 | 0.00 | 50 | 1010.2 |
| 20260507083206 | 12 | 180 | 1.6 | 9.7 | 0.00 | 0.00 | 0.00 | 51 | 1010.2 |
| 20260507082655 | 12 | 225 | 0.0 | 6.4 | 0.00 | 0.00 | 0.00 | 51 | 1010.4 |
| 20260507082145 | 12 | 203 | 0.0 | 6.4 | 0.00 | 0.00 | 0.00 | 53 | 1009.9 |
| 20260507081635 | 12 | 225 | 0.0 | 0.0 | 0.00 | 0.00 | 0.00 | 55 | 1009.6 |
| 20260507081125 | 12 | 203 | 0.0 | 0.0 | 0.00 | 0.00 | 0.00 | 54 | 1009.8 |
| 20260507080614 | 12 | 225 | 0.0 | 6.4 | 0.00 | 0.00 | 0.00 | 53 | 1009.6 |
| 20260507080110 | 12 | 158 | 0.0 | 6.4 | 0.00 | 0.00 | 0.00 | 54 | 1009.8 |
| 20260507075554 | 12 | 248 | 0.0 | 3.2 | 0.00 | 0.00 | 0.00 | 54 | 1010.1 |
| 20260507075044 | 12 | 203 | 0.0 | 14.5 | 0.00 | 0.00 | 0.00 | 54 | 1009.9 |
| 20260507074024 | 13 | 203 | 6.4 | 17.7 | 0.00 | 0.00 | 0.00 | 53 | 1010.4 |
| 20260507073515 | 13 | 225 | 4.8 | 17.7 | 0.00 | 0.00 | 0.00 | 54 | 1010.8 |
| 20260507073004 | 13 | 225 | 3.2 | 24.1 | 0.00 | 0.00 | 0.00 | 57 | 1010.7 |
| 20260507072454 | 13 | 203 | 6.4 | 24.1 | 0.00 | 0.00 | 0.00 | 55 | 1010.3 |
| 20260507071943 | 13 | 203 | 9.7 | 17.7 | 0.00 | 0.00 | 0.00 | 58 | 1010.4 |
| 20260507070923 | 13 | 225 | 1.6 | 12.9 | 0.00 | 0.00 | 0.00 | 58 | 1010.3 |
| 20260507070413 | 13 | 225 | 3.2 | 12.9 | 0.00 | 0.00 | 0.00 | 60 | 1010.1 |
| 20260507065904 | 13 | 225 | 6.4 | 17.7 | 0.00 | 0.00 | 0.00 | 60 | 1010.4 |
| 20260507065353 | 13 | 248 | 6.4 | 17.7 | 0.00 | 0.00 | 0.00 | 60 | 1010.5 |
| 20260507064843 | 13 | 180 | 6.4 | 14.5 | 0.00 | 0.00 | 0.00 | 59 | 1010.4 |
| 20260507064335 | 13 | 203 | 9.7 | 17.7 | 0.00 | 0.00 | 0.00 | 59 | 1010.4 |
| 20260507063823 | 13 | 225 | 9.7 | 17.7 | 0.00 | 0.00 | 0.00 | 59 | 1010.5 |
| 20260507063312 | 13 | 248 | 3.2 | 0.0 | 0.00 | 0.00 | 0.00 | 61 | 1011.2 |
| 20260507062341 | 13 | 180 | 9.7 | 17.7 | 0.00 | 0.00 | 0.00 | 60 | 1010.8 |
| 20260507061831 | 14 | 203 | 6.4 | 17.7 | 0.00 | 0.00 | 0.00 | 60 | 1010.5 |
| 20260507061322 | 14 | 225 | 6.4 | 17.7 | 0.00 | 0.00 | 0.00 | 59 | 1010.7 |
| 20260507060812 | 14 | 203 | 9.7 | 17.7 | 0.00 | 0.00 | 0.00 | 59 | 1010.9 |
| 20260507060302 | 14 | 225 | 6.4 | 17.7 | 0.00 | 0.00 | 0.00 | 60 | 1011.0 |
| 20260507055751 | 14 | 225 | 3.2 | 17.7 | 0.00 | 0.00 | 0.00 | 59 | 1010.8 |
| 20260507055241 | 14 | 203 | 6.4 | 14.5 | 0.00 | 0.00 | 0.00 | 59 | 1010.9 |
| 20260507054730 | 14 | 203 | 6.4 | 14.5 | 0.00 | 0.00 | 0.00 | 60 | 1010.8 |
| 20260507054221 | 14 | 225 | 0.0 | 11.3 | 0.00 | 0.00 | 0.00 | 61 | 1010.5 |
| 20260507053711 | 15 | 225 | 3.2 | 14.5 | 0.00 | 0.00 | 0.00 | 61 | 1010.8 |
| 20260507053201 | 15 | 225 | 0.0 | 14.5 | 0.00 | 0.00 | 0.00 | 61 | 1010.5 |
| 20260507052651 | 15 | 203 | 0.0 | 12.9 | 0.00 | 0.00 | 0.00 | 61 | 1010.5 |
| 20260507051631 | 15 | 225 | 0.0 | 11.3 | 0.00 | 0.00 | 0.00 | 63 | 1010.5 |
| 20260507051121 | 15 | 248 | 1.6 | 14.5 | 0.00 | 0.00 | 0.00 | 62 | 1010.2 |
| 20260507050609 | 15 | 225 | 3.2 | 14.5 | 0.00 | 0.00 | 0.00 | 62 | 1010.3 |
| 20260507050109 | 15 | 225 | 0.0 | 14.5 | 0.00 | 0.00 | 0.00 | 65 | 1010.1 |
| 20260507045549 | 15 | 248 | 0.0 | 14.5 | 0.00 | 0.00 | 0.00 | 64 | 1010.2 |
| 20260507045040 | 15 | 225 | 0.0 | 11.3 | 0.00 | 0.00 | 0.00 | 65 | 1009.7 |
| 20260507044019 | 15 | 225 | 3.2 | 9.7 | 0.00 | 0.00 | 0.00 | 64 | 1009.9 |
| 20260507042959 | 15 | 225 | 1.6 | 11.3 | 0.00 | 0.00 | 0.00 | 68 | 1009.5 |
| 20260507042450 | 15 | 225 | 3.2 | 6.4 | 0.00 | 0.00 | 0.00 | 70 | 1009.3 |
| 20260507041939 | 15 | 180 | 0.0 | 6.4 | 0.00 | 0.00 | 0.00 | 71 | 1009.2 |
| 20260507041428 | 15 | 158 | 0.0 | 6.4 | 0.00 | 0.00 | 0.00 | 72 | 1009.4 |
| 20260507040919 | 15 | 225 | 0.0 | 6.4 | 0.00 | 0.00 | 0.00 | 72 | 1009.1 |
| 20260507040408 | 15 | 203 | 0.0 | 3.2 | 0.00 | 0.00 | 0.00 | 72 | 1009.2 |
| 20260507035900 | 15 | 225 | 0.0 | 6.4 | 0.00 | 0.00 | 0.00 | 72 | 1009.1 |
| 20260507035348 | 15 | 225 | 0.0 | 6.4 | 0.00 | 0.00 | 0.00 | 72 | 1009.2 |
| 20260507034839 | 15 | 203 | 0.0 | 3.2 | 0.00 | 0.00 | 0.00 | 72 | 1009.3 |
| 20260507034328 | 15 | 270 | 0.0 | 9.7 | 0.00 | 0.00 | 0.00 | 72 | 1009.1 |
| 20260507033818 | 16 | 203 | 0.0 | 9.7 | 0.00 | 0.00 | 0.00 | 72 | 1008.8 |
| 20260507033308 | 16 | 293 | 0.0 | 3.2 | 0.00 | 0.00 | 0.00 | 73 | 1008.8 |
| 20260507032758 | 16 | 225 | 0.0 | 3.2 | 0.00 | 0.00 | 0.00 | 72 | 1008.9 |
| 20260507032247 | 16 | 248 | 0.0 | 6.4 | 0.00 | 0.00 | 0.00 | 72 | 1008.6 |
| 20260507031738 | 16 | 203 | 0.0 | 6.4 | 0.00 | 0.00 | 0.00 | 73 | 1008.7 |
| 20260507031227 | 16 | 225 | 1.6 | 6.4 | 0.00 | 0.00 | 0.00 | 72 | 1008.4 |
| 20260507030207 | 16 | 180 | 1.6 | 9.7 | 0.00 | 0.00 | 0.00 | 72 | 1008.7 |
| 20260507025701 | 16 | 248 | 0.0 | 9.7 | 0.00 | 0.00 | 0.00 | 71 | 1008.2 |
| 20260507025148 | 16 | 203 | 0.0 | 6.4 | 0.00 | 0.00 | 0.00 | 70 | 1008.3 |
| 20260507024637 | 16 | 203 | 0.0 | 6.4 | 0.00 | 0.00 | 0.00 | 69 | 1008.4 |
| 20260507024127 | 17 | 270 | 0.0 | 3.2 | 0.00 | 0.00 | 0.00 | 68 | 1008.4 |
| 20260507023106 | 17 | 293 | 0.0 | 6.4 | 0.00 | 0.00 | 0.00 | 69 | 1008.3 |
| 20260507022557 | 17 | 225 | 0.0 | 6.4 | 0.00 | 0.00 | 0.00 | 68 | 1008.3 |
| 20260507022046 | 17 | 225 | 0.0 | 6.4 | 0.00 | 0.00 | 0.00 | 69 | 1008.2 |
| 20260507021536 | 17 | 225 | 0.0 | 6.4 | 0.00 | 0.00 | 0.00 | 70 | 1008.4 |
| 20260507021026 | 17 | 248 | 1.6 | 6.4 | 0.00 | 0.00 | 0.00 | 68 | 1008.6 |
| 20260507020516 | 17 | 248 | 0.0 | 6.4 | 0.00 | 0.00 | 0.00 | 69 | 1008.6 |
| 20260507020012 | 18 | 248 | 0.0 | 6.4 | 0.00 | 0.00 | 0.00 | 69 | 1008.3 |
| 20260507015456 | 18 | 248 | 0.0 | 3.2 | 0.00 | 0.00 | 0.00 | 69 | 1008.0 |
| 20260507014946 | 18 | 180 | 0.0 | 6.4 | 0.00 | 0.00 | 0.00 | 71 | 1008.1 |
| 20260507014435 | 18 | 293 | 0.0 | 6.4 | 0.00 | 0.00 | 0.00 | 72 | 1008.1 |
| 20260507013925 | 18 | 203 | 3.2 | 11.3 | 0.00 | 0.00 | 0.00 | 73 | 1007.6 |
| 20260507013415 | 18 | 203 | 0.0 | 11.3 | 0.00 | 0.00 | 0.00 | 73 | 1008.0 |
| 20260507012906 | 18 | 225 | 0.0 | 9.7 | 0.00 | 0.00 | 0.00 | 73 | 1007.9 |
| 20260507012355 | 18 | 293 | 0.0 | 0.0 | 0.00 | 0.00 | 0.00 | 76 | 1007.8 |
| 20260507011845 | 18 | 225 | 0.0 | 0.0 | 0.00 | 0.00 | 0.00 | 76 | 1006.7 |
| 20260507011335 | 18 | 225 | 0.0 | 0.0 | 0.00 | 0.00 | 0.00 | 77 | 1007.2 |
| 20260507010314 | 18 | 315 | 0.0 | 0.0 | 0.00 | 0.00 | 0.00 | 76 | 1007.4 |
| 20260507005805 | 18 | 338 | 0.0 | 0.0 | 0.00 | 0.00 | 0.00 | 76 | 1007.4 |
| 20260507004745 | 19 | 180 | 0.0 | 0.0 | 0.00 | 0.00 | 0.00 | 75 | 1007.5 |
| 20260507003724 | 18 | 225 | 0.0 | 0.0 | 0.00 | 0.00 | 0.00 | 76 | 1007.5 |
| 20260507003213 | 18 | 158 | 0.0 | 0.0 | 0.00 | 0.00 | 0.00 | 76 | 1007.4 |
| 20260507002705 | 19 | 225 | 0.0 | 0.0 | 0.00 | 0.00 | 0.00 | 76 | 1007.2 |
| 20260507001644 | 19 | 225 | 0.0 | 0.0 | 0.00 | 0.00 | 0.00 | 76 | 1007.5 |
| 20260507001133 | 19 | 338 | 0.0 | 0.0 | 0.00 | 0.00 | 0.00 | 76 | 1007.2 |
| 20260507000624 | 19 | 225 | 0.0 | 0.0 | 0.00 | 0.00 | 0.00 | 75 | 1007.6 |
| 20260506235604 | 19 | 270 | 0.0 | 0.0 | 0.00 | 0.00 | 0.00 | 77 | 1007.5 |
| 20260506234033 | 19 | 315 | 0.0 | 0.0 | 0.00 | 0.00 | 0.00 | 78 | 1006.8 |
| 20260506233013 | 19 | 315 | 0.0 | 0.0 | 0.00 | 0.00 | 0.00 | 77 | 1007.0 |
| 20260506232503 | 19 | 315 | 0.0 | 0.0 | 0.00 | 0.00 | 0.00 | 77 | 1006.9 |
| 20260506231952 | 19 | 315 | 0.0 | 0.0 | 0.00 | 0.00 | 0.00 | 77 | 1006.8 |
| 20260506231442 | 20 | 270 | 0.0 | 0.0 | 0.00 | 0.00 | 0.00 | 75 | 1006.6 |
| 20260506230422 | 20 | 248 | 0.0 | 3.2 | 0.00 | 0.00 | 0.00 | 74 | 1006.5 |
| 20260506225912 | 20 | 248 | 0.0 | 6.4 | 0.00 | 0.00 | 0.00 | 73 | 1006.2 |
| 20260506225403 | 20 | 225 | 0.0 | 6.4 | 0.00 | 0.00 | 0.00 | 72 | 1006.1 |
| 20260506224851 | 20 | 203 | 0.0 | 6.4 | 0.00 | 0.00 | 0.00 | 72 | 1006.2 |
| 20260506224342 | 20 | 225 | 0.0 | 6.4 | 0.00 | 0.00 | 0.00 | 73 | 1005.9 |
| 20260506223832 | 20 | 203 | 0.0 | 6.4 | 0.00 | 0.00 | 0.00 | 72 | 1005.6 |
| 20260506223321 | 20 | 248 | 0.0 | 0.0 | 0.00 | 0.00 | 0.00 | 72 | 1005.5 |
| 20260506222811 | 20 | 248 | 0.0 | 0.0 | 0.00 | 0.00 | 0.00 | 72 | 1005.2 |
| 20260506220732 | 22 | 270 | 0.0 | 0.0 | 0.00 | 0.00 | 0.00 | 65 | 1004.8 |
| 20260506220222 | 22 | 225 | 0.0 | 0.0 | 0.00 | 0.00 | 0.00 | 64 | 1004.6 |
| 20260506215710 | 22 | 248 | 0.0 | 0.0 | 0.00 | 0.00 | 0.00 | 65 | 1004.5 |
| 20260506215200 | 21 | 293 | 0.0 | 0.0 | 0.00 | 0.00 | 0.00 | 72 | 1004.6 |
| 20260506214651 | 22 | 293 | 0.0 | 0.0 | 0.00 | 0.00 | 0.00 | 71 | 1004.6 |
| 20260506214140 | 20 | 248 | 0.0 | 0.0 | 0.00 | 0.00 | 0.00 | 75 | 1004.6 |
| 20260506212609 | 22 | 90 | 0.0 | 0.0 | 0.00 | 0.00 | 0.00 | 73 | 1004.0 |
| 20260506212100 | 22 | 23 | 0.0 | 0.0 | 0.00 | 0.00 | 0.00 | 72 | 1004.0 |
| 20260506211550 | 22 | 338 | 0.0 | 0.0 | 0.00 | 0.00 | 0.00 | 73 | 1003.7 |
| 20260506211039 | 22 | 0 | 0.0 | 0.0 | 0.00 | 0.00 | 0.00 | 72 | 1003.9 |
| 20260506210536 | 23 | 0 | 0.0 | 0.0 | 0.00 | 0.00 | 0.00 | 70 | 1003.7 |
| 20260506210020 | 23 | 315 | 0.0 | 0.0 | 0.00 | 0.00 | 0.00 | 70 | 1003.8 |
| 20260506205510 | 23 | 0 | 0.0 | 0.0 | 0.00 | 0.00 | 0.00 | 69 | 1003.7 |
| 20260506203940 | 24 | 0 | 0.0 | 0.0 | 0.00 | 0.00 | 0.00 | 67 | 1003.5 |
| 20260506203429 | 25 | 23 | 0.0 | 0.0 | 0.00 | 0.00 | 0.00 | 66 | 1003.4 |
| 20260506201858 | 25 | 23 | 0.0 | 0.0 | 0.00 | 0.00 | 0.00 | 64 | 1003.3 |
| 20260506200838 | 25 | 23 | 0.0 | 6.4 | 0.00 | 0.00 | 0.00 | 63 | 1003.1 |
| 20260506200328 | 25 | 23 | 0.0 | 9.7 | 0.00 | 0.00 | 0.00 | 62 | 1003.0 |
| 20260506195817 | 25 | 23 | 6.4 | 9.7 | 0.00 | 0.00 | 0.00 | 63 | 1003.2 |
| 20260506195307 | 25 | 23 | 1.6 | 9.7 | 0.00 | 0.00 | 0.00 | 63 | 1003.1 |
| 20260506194757 | 25 | 23 | 4.8 | 9.7 | 0.00 | 0.00 | 0.00 | 62 | 1003.2 |
| 20260506194248 | 26 | 23 | 1.6 | 9.7 | 0.00 | 0.00 | 0.00 | 62 | 1003.2 |
| 20260506193738 | 26 | 68 | 3.2 | 6.4 | 0.00 | 0.00 | 0.00 | 61 | 1003.2 |
| 20260506193228 | 26 | 23 | 3.2 | 6.4 | 0.00 | 0.00 | 0.00 | 61 | 1003.2 |
| 20260506192718 | 26 | 0 | 0.0 | 6.4 | 0.00 | 0.00 | 0.00 | 60 | 1003.3 |
| 20260506191147 | 26 | 45 | 0.0 | 6.4 | 0.00 | 0.00 | 0.00 | 61 | 1002.9 |
| 20260506190126 | 25 | 45 | 0.0 | 9.7 | 0.00 | 0.00 | 0.00 | 62 | 1003.3 |
| 20260506185106 | 25 | 23 | 0.0 | 11.3 | 0.00 | 0.00 | 0.00 | 62 | 1003.2 |
| 20260506184556 | 25 | 68 | 1.6 | 11.3 | 0.00 | 0.00 | 0.00 | 61 | 1003.1 |
| 20260506184046 | 25 | 23 | 3.2 | 11.3 | 0.00 | 0.00 | 0.00 | 61 | 1003.3 |
| 20260506183536 | 25 | 45 | 0.0 | 9.7 | 0.00 | 0.00 | 0.00 | 60 | 1003.2 |
| 20260506183026 | 25 | 90 | 0.0 | 9.7 | 0.00 | 0.00 | 0.00 | 61 | 1003.4 |
| 20260506182517 | 26 | 45 | 1.6 | 9.7 | 0.00 | 0.00 | 0.00 | 59 | 1003.4 |
| 20260506182006 | 25 | 23 | 3.2 | 9.7 | 0.00 | 0.00 | 0.00 | 60 | 1003.3 |
| 20260506181455 | 26 | 23 | 3.2 | 6.4 | 0.00 | 0.00 | 0.00 | 58 | 1003.0 |
| 20260506180946 | 25 | 90 | 0.0 | 3.2 | 0.00 | 0.00 | 0.00 | 60 | 1003.5 |
| 20260506180437 | 25 | 90 | 0.0 | 6.4 | 0.00 | 0.00 | 0.00 | 61 | 1003.6 |
| 20260506175925 | 25 | 68 | 0.0 | 6.4 | 0.00 | 0.00 | 0.00 | 61 | 1003.5 |
| 20260506175416 | 25 | 68 | 0.0 | 3.2 | 0.00 | 0.00 | 0.00 | 62 | 1003.7 |
| 20260506174905 | 25 | 135 | 0.0 | 3.2 | 0.00 | 0.00 | 0.00 | 61 | 1003.9 |
| 20260506173845 | 25 | 113 | 0.0 | 3.2 | 0.00 | 0.00 | 0.00 | 61 | 1004.3 |
| 20260506173335 | 25 | 113 | 0.0 | 3.2 | 0.00 | 0.00 | 0.00 | 60 | 1004.4 |
| 20260506172825 | 25 | 113 | 0.0 | 0.0 | 0.00 | 0.00 | 0.00 | 60 | 1004.8 |
| 20260506172315 | 25 | 315 | 0.0 | 0.0 | 0.00 | 0.00 | 0.00 | 60 | 1005.0 |
| 20260506171804 | 25 | 45 | 0.0 | 0.0 | 0.00 | 0.00 | 0.00 | 60 | 1004.7 |
| 20260506171255 | 25 | 248 | 0.0 | 0.0 | 0.00 | 0.00 | 0.00 | 60 | 1005.0 |
| 20260506170745 | 25 | 315 | 0.0 | 0.0 | 0.00 | 0.00 | 0.00 | 62 | 1005.2 |
| 20260506165723 | 24 | 248 | 0.0 | 3.2 | 0.00 | 0.00 | 0.00 | 61 | 1005.5 |
| 20260506165215 | 24 | 23 | 0.0 | 6.4 | 0.00 | 0.00 | 0.00 | 62 | 1005.6 |
| 20260506164704 | 24 | 45 | 0.0 | 6.4 | 0.00 | 0.00 | 0.00 | 62 | 1005.9 |
| 20260506164153 | 24 | 23 | 0.0 | 6.4 | 0.00 | 0.00 | 0.00 | 63 | 1005.9 |
| 20260506163643 | 23 | 23 | 0.0 | 6.4 | 0.00 | 0.00 | 0.00 | 65 | 1005.9 |
| 20260506162625 | 23 | 45 | 3.2 | 11.3 | 0.00 | 0.00 | 0.00 | 65 | 1005.9 |
| 20260506161603 | 22 | 23 | 3.2 | 12.9 | 0.00 | 0.00 | 0.00 | 67 | 1006.0 |
| 20260506160544 | 22 | 23 | 6.4 | 12.9 | 0.00 | 0.00 | 0.00 | 68 | 1006.2 |
| 20260506155523 | 22 | 0 | 4.8 | 14.5 | 0.00 | 0.00 | 0.00 | 69 | 1006.4 |
| 20260506155012 | 22 | 23 | 9.7 | 14.5 | 0.00 | 0.00 | 0.00 | 69 | 1006.3 |
| 20260506154502 | 22 | 45 | 11.3 | 14.5 | 0.00 | 0.00 | 0.00 | 70 | 1006.3 |